Patterson, LA

12:19 PM CST on November 13, 2019 (GMT -0600)
Williams Memorial

Weather History for KPTN - September, 2019

Change the Weather History Date:

Saturday, September 21, 2019

  Actual Average Record
Temperature  
Mean Temperature 80 °F -  
Max Temperature 88 °F 83 °F 96 °F (1998)
Min Temperature 72 °F 67 °F 64 °F (2012)
Cooling Degree Days 15    
Growing Degree Days 30 (Base 50)    
Moisture  
Dew Point 74 °F    
Average Humidity 85    
Maximum Humidity 100    
Minimum Humidity 63    
Precipitation  
Precipitation 0.02 in - - ()
Sea Level Pressure  
Sea Level Pressure 30.10 in    
Wind  
Wind Speed 7 mph (East)    
Max Wind Speed 14 mph    
Max Gust Speed 21 mph    
Visibility 9 miles    
Events Rain    
Averages and records for this station are not official NWS values.
T = Trace of Precipitation, MM = Missing Value Source: NWS Daily Summary

Daily Weather History Graph

Daily Weather History Graph

Search for Another Location

Airport or City:

Astronomy

Sep. 21, 2019 Rise Set
Actual Time 6:53 AM CDT 7:03 PM CDT
Civil Twilight 6:29 AM CDT 7:27 PM CDT
Nautical Twilight 6:01 AM CDT 7:54 PM CDT
Astronomical Twilight 5:33 AM CDT 8:22 PM CDT
Moon No Moon Rise 1:31 PM CDT (9/21)
Length of Visible Light 12h 57m
Length of Day
12h 10m
Waning Gibbous, 54% of the Moon is Illuminated
Sep 21
Waning Gibbous
Sep 21
Last Quarter
Sep 28
New
Oct 5
First Quarter
Oct 13
Full

Hourly Weather History & Observations

Time (CDT) Temp. Heat Index Dew Point Humidity Pressure Visibility Wind Dir Wind Speed Gust Speed Precip Events Conditions
12:56 AM 75.9 °F - 72.0 °F 87% 30.11 in 10.0 mi East 4.6 mph - N/A   Clear
1:56 AM 73.9 °F - 72.0 °F 93% 30.10 in 10.0 mi ENE 4.6 mph - N/A   Clear
3:56 AM 73.9 °F - 72.0 °F 93% 30.09 in 10.0 mi ENE 5.8 mph - N/A   Clear
4:56 AM 73.0 °F - 72.0 °F 96% 30.10 in 6.0 mi NE 4.6 mph - N/A   Clear
5:21 AM 73.4 °F - 71.6 °F 94% 30.09 in 2.5 mi NE 5.8 mph - N/A   Clear
5:35 AM 73.4 °F - 71.6 °F 94% 30.09 in 8.0 mi NE 5.8 mph - N/A   Clear
5:56 AM 73.0 °F - 72.0 °F 96% 30.10 in 4.0 mi NE 4.6 mph - N/A   Clear
6:56 AM 72.0 °F - 72.0 °F 100% 30.11 in 10.0 mi NE 5.8 mph - N/A   Clear
7:56 AM 75.9 °F - 73.9 °F 94% 30.12 in 10.0 mi ENE 5.8 mph - N/A   Partly Cloudy
8:56 AM 81.0 °F 86.7 °F 75.0 °F 82% 30.14 in 10.0 mi East 9.2 mph - N/A   Clear
9:56 AM 84.0 °F 91.2 °F 73.9 °F 72% 30.14 in 10.0 mi East 8.1 mph - N/A   Clear
10:56 AM 86.0 °F 95.1 °F 75.0 °F 70% 30.14 in 10.0 mi SE 10.4 mph - N/A   Clear
11:56 AM 87.1 °F 96.3 °F 75.0 °F 67% 30.13 in 10.0 mi ESE 11.5 mph - N/A   Partly Cloudy
12:56 PM 87.1 °F 96.3 °F 75.0 °F 67% 30.12 in 10.0 mi East 8.1 mph 17.3 mph N/A   Mostly Cloudy
1:56 PM 88.0 °F 96.5 °F 73.9 °F 63% 30.10 in 10.0 mi SE 13.8 mph - N/A   Scattered Clouds
2:56 PM 87.1 °F 95.4 °F 73.9 °F 65% 30.08 in 10.0 mi SE 12.7 mph - N/A   Scattered Clouds
3:56 PM 86.0 °F 95.1 °F 75.0 °F 70% 30.07 in 10.0 mi SE 9.2 mph 19.6 mph 0.00 in Rain Light Rain
4:56 PM 87.1 °F 96.3 °F 75.0 °F 67% 30.07 in 10.0 mi SE 11.5 mph 20.7 mph 0.00 in   Mostly Cloudy
5:46 PM 78.8 °F - 75.2 °F 89% 30.09 in 6.0 mi East 10.4 mph - 0.01 in Rain Rain
5:56 PM 78.1 °F - 75.0 °F 90% 30.09 in 10.0 mi East 9.2 mph - 0.02 in Rain Light Rain
6:08 PM 78.8 °F - 75.2 °F 89% 30.08 in 10.0 mi ENE 8.1 mph - 0.00 in Rain Light Rain
6:56 PM 77.0 °F - 75.0 °F 94% 30.09 in 10.0 mi ENE 3.5 mph - 0.00 in   Overcast
7:56 PM 77.0 °F - 75.0 °F 94% 30.09 in 10.0 mi ENE 4.6 mph - 0.00 in   Mostly Cloudy
8:56 PM 75.9 °F - 73.9 °F 94% 30.11 in 10.0 mi ENE 6.9 mph - N/A   Scattered Clouds
9:56 PM 75.0 °F - 73.0 °F 94% 30.12 in 10.0 mi East 6.9 mph - N/A   Mostly Cloudy
10:56 PM 75.0 °F - 73.0 °F 94% 30.12 in 10.0 mi East 3.5 mph - N/A   Mostly Cloudy
11:56 PM 73.9 °F - 73.9 °F 100% 30.11 in 10.0 mi Calm Calm - N/A   Clear